Location: Untermarchtal
(48.2403°N, 9.6117°E)
Time: 03:49:11
(UTC+01:00)

ISS - Pass Details

Date: 08 January 2018
Orbit: 402 x 407 km, 51.6° (Epoch: 21 January)

Event Time Altitude Azimuth Distance (km) Brightness Sun altitude
Exits shadow 05:05:54 12° 67° (ENE) 1,329 -0.5 -29.9°
Drops below altitude 10° 05:06:15 10° 69° (ENE) 1,469 -0.2 -29.9°
Sets 05:08:24 0° 75° (ENE) 2,332 1.1 -29.5°
